Terminal Aerodrome Forecast
Issued by NWS

Home | Current Version | Previous Version | Text Only | Print | Product List | Glossary On
Versions: 1 2 3 4 5 6 7 8 9 10 11 12 13 14 15
000
FTUS45 KRIW 241505 AAA
TAFJAC
TAF AMD
KJAC 241505Z 2415/2512 VRB05KT P6SM -SN SCT024 OVC045
      TEMPO 2415/2417 BKN035
     FM241700 19007KT P6SM VCSH SCT020 BKN035
     FM250300 VRB05KT P6SM SCT030 BKN050
      AMD LTD TO CLD VIS AND WIND=

USA.gov is the U.S. government's official web portal to all federal, state and local government web resources and services.